Weather History for KDEH - March, 2013

Change the Weather History Date:

Wednesday, March 6, 2013

  Actual Average Record
Temperature  
Mean Temperature 19 °F -  
Max Temperature 26 °F 38 °F 69 °F (2005)
Min Temperature 12 °F 18 °F -8 °F (1960)
Degree Days  
Heating Degree Days 46    
Moisture  
Dew Point 16 °F    
Average Humidity 78    
Maximum Humidity 93    
Minimum Humidity 64    
Precipitation  
Precipitation 0.00 in - - ()
Sea Level Pressure  
Sea Level Pressure 30.29 in    
Wind  
Wind Speed 11 mph (NNW)    
Max Wind Speed 18 mph    
Max Gust Speed 24 mph    
Visibility 10 miles    
Events Snow    
Averages and records for this station are not official NWS values.
T = Trace of Precipitation, MM = Missing Value Source: NWS Daily Summary

Daily Weather History Graph

Daily Weather History Graph

Search for Another Location

Airport or City:

Trip Planner

Search our weather history database for the weather conditions in past years. The results will help you decide how hot, cold, wet, or windy it might be!

Date:

Astronomy

Mar. 06, 2013 Rise Set
Actual Time 6:34 AM CST 6:02 PM CST
Civil Twilight 6:05 AM CST 6:31 PM CST
Nautical Twilight 5:32 AM CST 7:04 PM CST
Astronomical Twilight 4:59 AM CST 7:37 PM CST
Moon 2:50 AM CST (3/6) 12:38 PM CST (3/6)
Length of Visible Light 12h 25m
Length of Day
11h 28m
Waning Crescent, 29% of the Moon is Illuminated
Mar 6
Waning Crescent
Mar 11
New
Mar 19
First Quarter
Mar 27
Full
Apr 2
Last Quarter

Hourly Weather History & Observations

Time (CST) Temp. Windchill Dew Point Humidity Pressure Visibility Wind Dir Wind Speed Gust Speed Precip Events Conditions
12:15 AM 23.0 °F 14.7 °F 19.4 °F 86% 30.17 in 10.0 mi NNW 6.9 mph - N/A   Clear
12:35 AM 23.0 °F 13.9 °F 19.4 °F 86% 30.18 in 10.0 mi NW 8.1 mph - N/A   Partly Cloudy
12:55 AM 23.0 °F 13.9 °F 19.4 °F 86% 30.20 in 10.0 mi NW 8.1 mph - N/A   Mostly Cloudy
1:15 AM 23.0 °F 12.4 °F 21.2 °F 93% 30.20 in 10.0 mi NNW 10.4 mph 16.1 mph N/A   Overcast
1:35 AM 24.8 °F 14.0 °F 21.2 °F 86% 30.21 in 10.0 mi NW 11.5 mph - N/A   Overcast
1:55 AM 24.8 °F 11.9 °F 21.2 °F 86% 30.21 in 10.0 mi NNW 16.1 mph - N/A   Overcast
2:15 AM 24.8 °F 12.9 °F 21.2 °F 86% 30.22 in 10.0 mi NNW 13.8 mph 21.9 mph N/A   Overcast
2:35 AM 24.8 °F 11.5 °F 19.4 °F 80% 30.22 in 10.0 mi NNW 17.3 mph - N/A   Overcast
2:55 AM 23.0 °F 9.6 °F 19.4 °F 86% 30.23 in 10.0 mi NNW 16.1 mph - N/A   Overcast
3:15 AM 23.0 °F 9.6 °F 19.4 °F 86% 30.24 in 10.0 mi NNW 16.1 mph - N/A   Overcast
3:35 AM 23.0 °F 8.7 °F 17.6 °F 80% 30.24 in 10.0 mi NNW 18.4 mph 24.2 mph N/A   Overcast
3:55 AM 23.0 °F 9.2 °F 17.6 °F 80% 30.25 in 10.0 mi NNW 17.3 mph 23.0 mph N/A   Overcast
4:15 AM 23.0 °F 9.2 °F 17.6 °F 80% 30.25 in 10.0 mi NNW 17.3 mph - N/A   Overcast
4:35 AM 23.0 °F 11.1 °F 17.6 °F 80% 30.26 in 10.0 mi NNW 12.7 mph 19.6 mph N/A   Overcast
4:55 AM 23.0 °F 10.6 °F 17.6 °F 80% 30.27 in 10.0 mi NNW 13.8 mph 19.6 mph N/A   Overcast
5:15 AM 21.2 °F 6.8 °F 17.6 °F 86% 30.27 in 10.0 mi NNW 17.3 mph - N/A   Overcast
5:35 AM 21.2 °F 10.1 °F 17.6 °F 86% 30.28 in 10.0 mi NNW 10.4 mph 18.4 mph N/A   Overcast
5:55 AM 21.2 °F 7.3 °F 17.6 °F 86% 30.28 in 10.0 mi North 16.1 mph - N/A   Overcast
6:15 AM 21.2 °F 7.3 °F 17.6 °F 86% 30.28 in 10.0 mi North 16.1 mph - N/A   Overcast
6:35 AM 21.2 °F 9.5 °F 17.6 °F 86% 30.29 in 10.0 mi NNW 11.5 mph 19.6 mph N/A   Overcast
6:55 AM 21.2 °F 9.5 °F 17.6 °F 86% 30.29 in 10.0 mi NNW 11.5 mph - N/A   Overcast
7:15 AM 21.2 °F 7.8 °F 17.6 °F 86% 30.31 in 10.0 mi NNW 15.0 mph - N/A   Overcast
7:35 AM 21.2 °F 7.8 °F 17.6 °F 86% 30.31 in 10.0 mi NNW 15.0 mph - N/A   Overcast
7:55 AM 21.2 °F 9.5 °F 17.6 °F 86% 30.32 in 10.0 mi NNW 11.5 mph - N/A Snow Light Snow
8:15 AM 21.2 °F 7.8 °F 15.8 °F 80% 30.32 in 10.0 mi North 15.0 mph 23.0 mph N/A   Light Freezing Rain
8:35 AM 21.2 °F 7.3 °F 15.8 °F 80% 30.32 in 10.0 mi NNW 16.1 mph 24.2 mph N/A   Overcast
8:55 AM 23.0 °F 10.6 °F 15.8 °F 74% 30.32 in 10.0 mi NNW 13.8 mph 19.6 mph N/A   Overcast
9:15 AM 23.0 °F 11.1 °F 15.8 °F 74% 30.33 in 10.0 mi NNW 12.7 mph 19.6 mph N/A   Overcast
9:35 AM 23.0 °F 10.1 °F 15.8 °F 74% 30.33 in 10.0 mi North 15.0 mph 21.9 mph N/A   Overcast
9:55 AM 23.0 °F 8.7 °F 15.8 °F 74% 30.33 in 10.0 mi NNW 18.4 mph - N/A   Overcast
10:15 AM 23.0 °F 8.7 °F 15.8 °F 74% 30.33 in 10.0 mi NNW 18.4 mph - N/A   Overcast
10:35 AM 23.0 °F 10.1 °F 15.8 °F 74% 30.33 in 10.0 mi NNW 15.0 mph - N/A   Overcast
10:55 AM 23.0 °F 10.6 °F 15.8 °F 74% 30.33 in 10.0 mi North 13.8 mph 20.7 mph N/A   Overcast
11:15 AM 23.0 °F 10.1 °F 15.8 °F 74% 30.33 in 10.0 mi North 15.0 mph - N/A   Overcast
11:35 AM 24.8 °F 12.4 °F 15.8 °F 69% 30.33 in 10.0 mi NNW 15.0 mph - N/A   Overcast
11:55 AM 24.8 °F 12.4 °F 15.8 °F 69% 30.33 in 10.0 mi NNW 15.0 mph - N/A   Overcast
12:15 PM 24.8 °F 12.4 °F 15.8 °F 69% 30.32 in 10.0 mi NNW 15.0 mph - N/A   Overcast
12:35 PM 24.8 °F 13.4 °F 17.6 °F 74% 30.32 in 10.0 mi NNW 12.7 mph - N/A   Overcast
12:55 PM 24.8 °F 14.0 °F 15.8 °F 69% 30.32 in 10.0 mi NNW 11.5 mph - N/A   Mostly Cloudy
1:15 PM 24.8 °F 13.4 °F 15.8 °F 69% 30.32 in 10.0 mi NNW 12.7 mph - N/A   Mostly Cloudy
1:35 PM 24.8 °F 13.4 °F 15.8 °F 69% 30.31 in 10.0 mi NNW 12.7 mph - N/A   Partly Cloudy
1:55 PM 24.8 °F 14.0 °F 15.8 °F 69% 30.30 in 10.0 mi North 11.5 mph - N/A   Clear
2:15 PM 24.8 °F 12.9 °F 15.8 °F 69% 30.30 in 10.0 mi NNW 13.8 mph - N/A   Clear
2:35 PM 24.8 °F 14.0 °F 15.8 °F 69% 30.30 in 10.0 mi NNW 11.5 mph - N/A   Clear
2:55 PM 24.8 °F 12.9 °F 15.8 °F 69% 30.30 in 10.0 mi NNW 13.8 mph - N/A   Clear
3:15 PM 26.6 °F 16.2 °F 15.8 °F 64% 30.30 in 10.0 mi NNW 11.5 mph - N/A   Clear
3:35 PM 26.6 °F 16.2 °F 15.8 °F 64% 30.29 in 10.0 mi NNW 11.5 mph - N/A   Clear
3:55 PM 26.6 °F 16.8 °F 15.8 °F 64% 30.28 in 10.0 mi NNW 10.4 mph - N/A   Clear
4:15 PM 26.6 °F 16.2 °F 15.8 °F 64% 30.29 in 10.0 mi NNW 11.5 mph - N/A   Clear
4:35 PM 26.6 °F 17.5 °F 15.8 °F 64% 30.29 in 10.0 mi NNW 9.2 mph - N/A   Clear
4:55 PM 24.8 °F 14.6 °F 15.8 °F 69% 30.30 in 10.0 mi NW 10.4 mph - N/A   Clear
5:15 PM 24.8 °F 15.3 °F 15.8 °F 69% 30.31 in 10.0 mi NNW 9.2 mph - N/A   Clear
5:35 PM 24.8 °F 16.9 °F 15.8 °F 69% 30.30 in 10.0 mi NNW 6.9 mph - N/A   Clear
5:55 PM 23.0 °F 13.9 °F 14.0 °F 68% 30.30 in 10.0 mi NNW 8.1 mph - N/A   Clear
6:15 PM 23.0 °F 15.8 °F 14.0 °F 68% 30.31 in 10.0 mi NNW 5.8 mph - N/A   Clear
6:35 PM 23.0 °F 17.0 °F 14.0 °F 68% 30.31 in 10.0 mi WSW 4.6 mph - N/A   Clear
6:55 PM 19.4 °F 12.8 °F 14.0 °F 80% 30.31 in 10.0 mi WNW 4.6 mph - N/A   Clear
7:15 PM 19.4 °F 14.3 °F 14.0 °F 80% 30.31 in 10.0 mi WNW 3.5 mph - N/A   Clear
7:35 PM 19.4 °F 12.8 °F 14.0 °F 80% 30.31 in 10.0 mi WNW 4.6 mph - N/A   Clear
7:55 PM 17.6 °F - 14.0 °F 86% 30.31 in 10.0 mi Calm Calm - N/A   Clear
8:35 PM 15.8 °F - 12.2 °F 86% 30.31 in 10.0 mi Calm Calm - N/A   Clear
8:55 PM 17.6 °F 9.3 °F 14.0 °F 86% 30.31 in 10.0 mi North 5.8 mph - N/A   Clear
9:35 PM 17.6 °F - 12.2 °F 79% 30.31 in 10.0 mi Calm Calm - N/A   Clear
9:55 PM 17.6 °F - 12.2 °F 79% 30.31 in 10.0 mi Calm Calm - N/A   Clear
10:15 PM 15.8 °F - 12.2 °F 86% 30.31 in 10.0 mi Calm Calm - N/A   Clear
10:35 PM 14.0 °F - 12.2 °F 93% 30.31 in 9.0 mi Calm Calm - N/A   Clear
10:55 PM 14.0 °F - 12.2 °F 93% 30.31 in 8.0 mi Calm Calm - N/A   Clear
11:15 PM 14.0 °F - 12.2 °F 93% 30.31 in 9.0 mi Calm Calm - N/A   Clear
11:35 PM 12.2 °F - 10.4 °F 92% 30.31 in 7.0 mi Calm Calm - N/A   Clear
11:55 PM 12.2 °F - 10.4 °F 92% 30.32 in 6.0 mi Calm Calm - N/A   Clear